Regional Weather Roundup
Issued by NWS Portland, ME

Current Version | Previous Version | Text Only | Print | Product List | Glossary Off
Versions: 1 2 3 4 5 6 7 8 9 10 11 12 13 14 15 16 17 18 19 20 21 22 23 24 25 26 27 28 29 30 31 32 33 34 35 36 37 38 39 40 41 42 43 44 45 46 47 48 49 50
000 ASUS41 KGYX 152210 RWRGYX WEATHER ROUNDUP FOR MAINE AND NEW HAMPSHIRE NATIONAL WEATHER SERVICE GRAY ME 500 PM EST TUE JAN 15 2019 MEZ002-005-006-010-012-015-018-020-021-024-026-027-029-152300- MAINE CITY SKY/WX TMP DP RH WIND PRES REMARKS PORTLAND FAIR 30 19 63 CALM 30.05R SANFORD FAIR 26 19 74 CALM 30.04S BAR HARBOR FAIR 23 14 68 NW5 30.05R WISCASSET FAIR 27 19 72 CALM 30.06R ROCKLAND FAIR 28 18 66 NW3 30.05R FRYEBURG FAIR 27 17 66 CALM 30.01S LEWISTONAUBURN CLOUDY 28 17 63 CALM 30.03S AUGUSTA MOCLDY 28 17 63 CALM 30.03R WATERVILLE CLOUDY 26 17 68 MISG 30.00S BANGOR MOCLDY 24 14 65 NW5 30.04R GREENVILLE N/A 19 10 68 NW5 29.93R MILLINOCKET FAIR 18 11 74 W5 30.02R HOULTON CLOUDY 14 11 87 CALM 29.98R PRESQUE ISLE MOCLDY 15 9 76 NE3 30.00R FRENCHVILLE FAIR 15 4 61 NW10 29.94S WCI 2 CARIBOU MOCLDY 14 6 70 CALM 29.98R $$ NHZ002-005-008-009-011-012-014-152300- NEW HAMPSHIRE CITY SKY/WX TMP DP RH WIND PRES REMARKS PORTSMOUTH MOCLDY 30 18 61 W6 30.04R ROCHESTER FAIR 30 19 63 CALM 30.03S NASHUA FAIR 30 20 66 N5 30.07R MANCHESTER FAIR 31 18 58 NW8 30.05S CONCORD FAIR 27 19 72 NW6 30.06R PLYMOUTH FAIR 25 19 77 CALM 30.04S BERLIN CLOUDY 24 17 74 CALM 29.99S WHITEFIELD CLOUDY 24 18 77 S3 30.01S JAFFREY FAIR 27 18 69 CALM 30.02S KEENE CLOUDY 30 20 66 W3 30.06S LEBANON CLOUDY 25 15 66 CALM 30.04F MT WASHINGTON NOT AVBL $$ VTZ005-007-008-152300- VERMONT CITY SKY/WX TMP DP RH WIND PRES REMARKS ST JOHNSBURY N/A 24 18 77 MISG 30.02S MONTPELIER CLOUDY 23 21 92 S3 30.04S BURLINGTON CLOUDY 26 17 68 S6 30.05S $$ MAZ007-012-024-CTZ003-RIZ002-NYZ038-NYZ072-152300- SOUTHERN NEW ENGLAND AND NY CITY SKY/WX TMP DP RH WIND PRES REMARKS BOSTON MOCLDY 36 18 48 W12 30.07R WORCESTER FAIR 27 16 63 W6 30.03R NANTUCKET FAIR 29 16 58 CALM 30.07S PROVIDENCE MOCLDY 33 18 53 NW6 30.08R HARTFORD FAIR 29 17 61 NW5 30.08F ALBANY CLOUDY 31 21 66 N3 30.10S NEW YORK CITY MOCLDY 34 15 46 NE7 30.12S $$ ANZ081-ANZ082-ANZ150-NHZ014-MEZ023>029-152300- COASTAL MARINE OBSERVATIONS STATION/POSITION TIME TEMP WIND PRES WAVE AIR SEA DIR/SP/G HT/PER (UTC) (F) (DEG/KT/KT) (MB) (FT/S) MOUNT DESERT ROC 2200 28 310/ 12/ 15 1017.4R MATINICUS ROCK 2100 31 310/ 11/ 13 1016.4R ISLE OF SHOALS 2100 34 270/ 6/ 7 1017.1F JEFFREYS LEDGE 2138 43 N/A 6/12 CASHES LEDGE BUO 2150 30 40 1017.7R 5/11 $$ .............KEY.............. WCI - WIND CHILL TC - TEMPERATURE IN CELSIUS VSB - VISIBILITY IN MILES HX - HEAT INDEX FAIR- INDICATES FEW OR NO CLOUDS BELOW 12,000 FT, WITH NO SIGNIFICANT WEATHER AND/OR OBSTRUCTIONS TO VISIBILITY.

USA.gov is the U.S. government's official web portal to all federal, state and local government web resources and services.